Location: Ku?niki
(51.4449°N, 17.8974°E)
Time: 11:23:40
(UTC+00:00)

Cosmos 1766 - Pass Details

Date: 18 September 2020
Orbit: 521 x 544 km, 82.5° (Epoch: 30 October)

Event Time Altitude Azimuth Distance (km) Brightness Sun altitude
Exits shadow 19:34:17 66° 351° (N) 590 3.5 -23.9°
Drops below altitude 10° 19:37:46 10° 9° (N) 1,806 6.3 -24.3°
Sets 19:39:56 0° 10° (N) 2,706 7.2 -24.6°
